星链-33831 (STARLINK-33831)

导读

STARLINK-33831是美国SpaceX星链(Starlink)星座的低轨卫星,于2025年4月14日发射。星链计划旨在构建全球低轨卫星互联网星座,为全球提供高速宽带网络服务,尤其覆盖偏远地区。STARLINK-33831运行于约550公里近地轨道,以约7.6km/s速度飞行,属于星链星座扩容卫星,进一步增强星座服务覆盖与网络容量。

Basic Information
目录编号:
63595
目录名称:
STARLINK-33831
国际标识:
2025-076AC
轨道中心:
EARTH
卫星名称:
星链-33831
卫星全名:
星链-33831 (STARLINK-33831)
卫星状态:
在轨 (已飞行426 天)
发射日期:
2025-04-14 UTC
国别 :
美国 (US)
星等 :
--
Orbit Information
数据来源 国际轨道数据 AOE轨道数据
星历时间 2026-06-13T22:59:36+0800
14小时前
查看轨道信息
2026-06-12T00:00:00+0800
2天前
查看轨道信息
半长轴 6861.118km 6861.217km
偏心率 0.0002546 0.0000944
轨道倾角 43.005° 42.997°
近地点辐角 278.420° 252.024°
升交点赤经 139.731° 150.791°
平近点角 81.636° 127.470°
近地点 481.234km 482.432km
远地点 484.728km 483.728km
周期 94.265分钟 94.267分钟
每日圈数 15.27603 15.275698
Detailed Information
固有亮度:
5
最大亮度:
2.5
卫星平台:
Starlink V1.0
覆盖范围:
全球
运营商:
太空探索技术公司
运营商所在国:
美国
制造商(研发单位):
太空探索技术公司
制造商所在国:
美国
使用方式:
暂无
Satellite Introduction
Starlink 计划是 SpaceX 推出的全球卫星互联网项目,通过发射低轨道卫星,为全球尤其是偏远地区提供高速、低延迟的互联网服务。自 2019 年起,Starlink 已部署数千颗卫星,旨在缩小全球数字鸿沟,推动互联网普及。该项目还为军事、航空等行业提供通信支持,带来广泛经济效益。
2D Orbit Map
3D Orbit Map
Orbit Altitude Analysis Chart
Orbit Inclination Analysis Chart
Orbit Comprehensive Analysis Chart
View Comprehensive Chart